Torna al catalogo

SL-8 R/B

AttivoPO
NORAD 14085·ROCKET BODY·🇷🇺 Russia

Lanciato May 24, 1983 da Plesetsk Cosmodrome

Loading…

Prossimi Passaggi (prossime 24 ore)

TLE

AggiornatoSource: Space-Track

Epoca: Sep 14, 2026, 20:16 UTC

1 14085U 83048B   26257.84452892  .00000099  00000-0  84872-4 0  9996
2 14085  82.9398 102.9686 0034026  24.8264 335.4521 13.76611246174880

Traccia SL-8 R/B in tempo reale con AllMySat

Download on the App Store